Weather History for LEVT - February, 2013

Change the Weather History Date:

Wednesday, February 6, 2013

  Actual Average Record
Temperature  
Mean Temperature 36 °F -  
Max Temperature 39 °F 52 °F 68 °F (2014)
Min Temperature 33 °F 33 °F 23 °F (2011)
Degree Days  
Heating Degree Days 29    
Moisture  
Dew Point 34 °F    
Average Humidity 90    
Maximum Humidity 100    
Minimum Humidity 81    
Precipitation  
Precipitation 0.00 in - - ()
Sea Level Pressure  
Sea Level Pressure 30.03 in    
Wind  
Wind Speed 9 mph ()    
Max Wind Speed 24 mph    
Max Gust Speed 40 mph    
Visibility 4.5 miles    
Events Rain , Snow    
Averages and records for this station are not official NWS values.
T = Trace of Precipitation, MM = Missing Value Source: Averaged Metar Reports

Daily Weather History Graph

Daily Weather History Graph

Search for Another Location

Airport or City:

Trip Planner

Search our weather history database for the weather conditions in past years. The results will help you decide how hot, cold, wet, or windy it might be!

Date:

Astronomy

Feb. 06, 2013 Rise Set
Actual Time 8:19 AM CET 6:30 PM CET
Civil Twilight 7:50 AM CET 7:00 PM CET
Nautical Twilight 7:16 AM CET 7:33 PM CET
Astronomical Twilight 6:43 AM CET 8:06 PM CET
Moon 4:52 AM CET (2/6) 2:30 PM CET (2/6)
Length of Visible Light 11h 09m
Length of Day
10h 10m
Waning Crescent, 19% of the Moon is Illuminated
Feb 6
Waning Crescent
Feb 10
New
Feb 17
First Quarter
Feb 25
Full
Mar 4
Last Quarter

Hourly Weather History & Observations

Time (CET) Temp. Windchill Dew Point Humidity Pressure Visibility Wind Dir Wind Speed Gust Speed Precip Events Conditions
12:00 AM 35.6 °F - 33.8 °F 93% 30.09 in 5.6 mi Variable 2.3 mph - N/A Rain Light Rain
12:30 AM 33.8 °F 30.8 °F 32.0 °F 93% 30.09 in 6.2 mi SSW 3.5 mph - N/A   Mostly Cloudy
1:00 AM 35.6 °F 31.7 °F 32.0 °F 87% 30.09 in 6.2 mi SW 4.6 mph - N/A   Scattered Clouds
1:30 AM 35.6 °F 29.2 °F 33.8 °F 93% 30.06 in 6.2 mi SSW 8.1 mph - N/A   Scattered Clouds
2:00 AM 35.6 °F 28.0 °F 33.8 °F 93% 30.06 in 6.2 mi SW 10.4 mph - N/A Rain Light Rain
3:00 AM 33.8 °F 27.7 °F 32.0 °F 93% 30.04 in 6.2 mi SW 6.9 mph - N/A Rain Light Rain
3:30 AM 35.6 °F 30.7 °F 33.8 °F 93% 30.04 in 6.2 mi SSE 5.8 mph - N/A Rain Light Rain
4:00 AM 35.6 °F 29.2 °F 33.8 °F 93% 30.04 in 5.6 mi West 8.1 mph - N/A Rain Light Rain
4:30 AM 33.8 °F - 32.0 °F 93% 30.01 in 6.2 mi Variable 2.3 mph - N/A   Scattered Clouds
5:00 AM 35.6 °F - 33.8 °F 93% 30.01 in 5.6 mi Variable 2.3 mph - N/A Rain Light Rain
5:30 AM 35.6 °F 28.0 °F 33.8 °F 93% 30.01 in 4.3 mi WNW 10.4 mph - N/A Rain Light Rain
6:00 AM 33.8 °F - 32.0 °F 93% 30.01 in 6.2 mi Variable 2.3 mph - N/A   Scattered Clouds
6:30 AM 35.6 °F 30.7 °F 33.8 °F 93% 30.01 in 5.6 mi WSW 5.8 mph - N/A Rain Light Rain
7:00 AM 35.6 °F 28.6 °F 32.0 °F 87% 30.01 in 5.6 mi West 9.2 mph - N/A Rain Light Rain
7:30 AM 35.6 °F 27.1 °F 33.8 °F 93% 30.01 in 5.0 mi West 12.7 mph - N/A Rain Light Rain
8:00 AM 35.6 °F 28.6 °F 33.8 °F 93% 30.01 in 4.3 mi SW 9.2 mph - N/A Rain Light Rain
8:30 AM 35.6 °F 28.6 °F 33.8 °F 93% 30.01 in 4.3 mi SW 9.2 mph - N/A Rain Light Rain
9:30 AM 35.6 °F 30.7 °F 33.8 °F 93% 30.01 in 4.3 mi SW 5.8 mph - N/A Rain Rain
10:00 AM 35.6 °F 29.9 °F 35.6 °F 100% 30.01 in 5.0 mi WSW 6.9 mph - N/A Rain Light Rain
10:30 AM 35.6 °F 27.5 °F 33.8 °F 93% 30.01 in 3.7 mi West 11.5 mph - N/A Rain , Snow Light Rain
11:00 AM 35.6 °F 28.6 °F 35.6 °F 100% 30.01 in 5.0 mi West 9.2 mph - N/A Rain Light Rain
11:30 AM 37.4 °F 31.4 °F 33.8 °F 87% 30.01 in 4.3 mi West 8.1 mph 19.6 mph N/A Rain Rain Showers
12:00 PM 39.2 °F 29.6 °F 35.6 °F 87% 30.01 in 5.6 mi WNW 19.6 mph 32.2 mph N/A   Scattered Clouds
12:30 PM 39.2 °F 30.2 °F 35.6 °F 87% 30.01 in 3.1 mi West 17.3 mph - N/A Rain Rain Showers
1:00 PM 39.2 °F 30.5 °F 35.6 °F 87% 30.01 in 4.3 mi WNW 16.1 mph 38.0 mph N/A Rain Rain
1:30 PM 39.2 °F 29.0 °F 35.6 °F 87% 30.01 in 3.7 mi NW 21.9 mph 33.4 mph N/A Rain Rain
2:00 PM 39.2 °F 30.2 °F 35.6 °F 87% 29.98 in 6.2 mi NW 17.3 mph 28.8 mph N/A   Scattered Clouds
2:30 PM 39.2 °F 29.6 °F 35.6 °F 87% 30.01 in 4.3 mi NW 19.6 mph 35.7 mph N/A Rain Rain
3:00 PM 39.2 °F 29.6 °F 35.6 °F 87% 30.01 in 3.7 mi NW 19.6 mph 35.7 mph N/A Rain Rain
3:30 PM 37.4 °F 26.1 °F 33.8 °F 87% 30.01 in 3.1 mi NW 24.2 mph 40.3 mph N/A Rain Rain
4:30 PM 37.4 °F 28.5 °F 35.6 °F 93% 29.98 in 2.5 mi NW 15.0 mph - N/A Rain Rain
5:00 PM 37.4 °F 26.4 °F 33.8 °F 87% 30.01 in 3.1 mi NW 23.0 mph 39.1 mph N/A Rain Light Rain
5:30 PM 37.4 °F 27.5 °F 32.0 °F 81% 30.01 in 3.1 mi NNW 18.4 mph - N/A Rain Light Rain
6:30 PM 35.6 °F 24.0 °F 33.8 °F 93% 30.01 in 3.1 mi NW 23.0 mph 38.0 mph N/A Rain Light Rain
7:00 PM 37.4 °F 27.5 °F 32.0 °F 81% 30.04 in 3.7 mi NW 18.4 mph - N/A   Mostly Cloudy
7:30 PM 37.4 °F 28.5 °F 33.8 °F 87% 30.04 in 3.1 mi NW 15.0 mph - N/A Rain Light Rain
8:00 PM 37.4 °F 27.5 °F 32.0 °F 81% 30.04 in 3.7 mi NW 18.4 mph - N/A Rain Light Rain
8:30 PM 35.6 °F 24.8 °F 33.8 °F 93% 30.06 in 3.7 mi NW 19.6 mph 33.4 mph N/A Rain Light Rain
9:00 PM 35.6 °F 26.2 °F 33.8 °F 93% 30.04 in 3.7 mi NW 15.0 mph - N/A Rain Light Rain
9:30 PM 35.6 °F 25.5 °F 33.8 °F 93% 30.06 in 3.1 mi NW 17.3 mph - N/A Rain Rain Showers
10:00 PM 37.4 °F 27.8 °F 32.0 °F 81% 30.06 in 3.7 mi NW 17.3 mph 32.2 mph N/A   Mostly Cloudy
10:30 PM 37.4 °F 27.2 °F 32.0 °F 81% 30.06 in 4.3 mi NW 19.6 mph 31.1 mph N/A   Scattered Clouds
11:00 PM 35.6 °F 25.9 °F 33.8 °F 93% 30.09 in 3.1 mi NW 16.1 mph - N/A Rain Rain
11:30 PM 35.6 °F 28.0 °F 33.8 °F 93% 30.09 in 3.1 mi NW 10.4 mph - N/A Rain Rain